Regional Weather Roundup
Issued by NWS Boston, MA

Home | Current Version | Previous Version | Text Only | Print | Product List | Glossary On
Versions: 1 2 3 4 5 6 7 8 9 10 11 12 13 14 15 16 17 18 19 20 21 22 23 24 25 26 27 28 29 30 31 32 33 34 35 36 37 38 39 40 41 42 43 44 45 46 47 48 49 50
000
ASUS41 KBOX 282110
RWRBOX

REGIONAL WEATHER ROUNDUP
NATIONAL WEATHER SERVICE TAUNTON MA
400 PM EST SAT FEB 28 2015

NOTE:  "FAIR" INDICATES FEW OR NO CLOUDS BELOW 12,000 FEET WITH NO
SIGNIFICANT WEATHER AND/OR OBSTRUCTIONS TO VISIBILITY.  THE FOLLOWING
OBSERVATION LOCATIONS DO NOT REPORT PRESENT WEATHER...PROVINCETOWN...
SMITHFIELD...BLOCK ISLAND...KEENE...AND OXFORD.

MAZALL-282200-
EASTERN MASSACHUSETTS

CITY           SKY/WX    TMP DP  RH WIND       PRES   REMARKS
BOSTON         SUNNY     30   2  30 SW6       30.68S WCI  24
BEVERLY        SUNNY     29  -2  26 W9        30.67S WCI  20
LAWRENCE       SUNNY     28   1  31 SW9       30.68S WCI  19
BEDFORD        MIX PCPN  29  -2  26 W7        30.66S WCI  22
BLUE HILL        N/A     28  -2  27 W9        30.63S WCI  19
NORWOOD        SUNNY     30  -3  24 W10       30.68S WCI  21
MARSHFIELD     SUNNY     28  10  47 E5        30.70S WCI  23
PLYMOUTH       SUNNY     28   1  31 SW7       30.68S WCI  21
TAUNTON        SUNNY     30  -1  26 SW7       30.68S WCI  23
NEW BEDFORD    SUNNY     28   1  31 W9        30.68F WCI  19
$$

MAZALL-282200-
CAPE COD AND THE ISLANDS

CITY           SKY/WX    TMP DP  RH WIND       PRES   REMARKS
FALMOUTH       SUNNY     25   3  39 W8        30.68F WCI  16
HYANNIS        SUNNY     28   2  32 W7        30.67S WCI  21
CHATHAM        SUNNY     27   7  42 SW6       30.69F WCI  20
NANTUCKET      SUNNY     25   7  46 W10       30.70F WCI  15
MARTHAS VNYRD  SUNNY     25  -4  28 W8        30.70S WCI  16
$$

MAZALL-282200-
CENTRAL AND WESTERN MASSACHUSETTS

CITY           SKY/WX    TMP DP  RH WIND       PRES   REMARKS
WORCESTER      SUNNY     26  -2  29 W10       30.61S WCI  16
FITCHBURG      SUNNY     31  -3  23 W7        30.66S WCI  24
ORANGE         SUNNY     29  -4  24 W8        30.65S WCI  21
SPRINGFIELD    SUNNY     28   5  37 S8        30.67S WCI  20
WESTFIELD      SUNNY     31  -2  24 W12       30.67F WCI  22
NORTH ADAMS    SUNNY     25   0  33 NW6       30.68S WCI  18
PITTSFIELD     SUNNY     21   0  39 W12       30.63S WCI   9
$$

RIZALL-282200-
RHODE ISLAND

CITY           SKY/WX    TMP DP  RH WIND       PRES   REMARKS
PROVIDENCE     MOSUNNY   26  10  50 SE7       30.69F WCI  18
NEWPORT        SUNNY     25   9  50 S8        30.69S WCI  16
BLOCK ISLAND   SUNNY     27  10  50 W12       30.69F WCI  16
SMITHFIELD     SUNNY     30  -2  24 W9        30.65S WCI  22
WESTERLY       SUNNY     27  12  53 SW8       30.71F WCI  19
$$

CTZALL-282200-
CONNECTICUT

CITY           SKY/WX    TMP DP  RH WIND       PRES   REMARKS
BRADLEY INTL   MOSUNNY   29   5  36 SE8       30.68F WCI  21
HARTFORD       SUNNY     30   1  29 SW9       30.71F WCI  22
BRIDGEPORT     SUNNY     27  12  53 SW13      30.73F WCI  16
DANBURY        SUNNY     26  -3  28 VRB5      30.71F WCI  20
GROTON         SUNNY     25  13  60 SW15      30.71S WCI  13
NEW HAVEN      MOSUNNY   27  13  55 SW10G16   30.72S WCI  17
CHESTER        FAIR      30  -4  22 NW6       30.69S WCI  24
MERIDEN        SUNNY     29   0  28 W5        30.71F WCI  24
WILLIMANTIC    SUNNY     29  -3  25 W8        30.70S WCI  21
OXFORD         SUNNY     27   1  33 NW6       30.68F WCI  20
$$

MEZ002-015-021-024-NHZ003-005-008-011-012-014-VTZ005-008-282200-
NORTHERN NEW ENGLAND

CITY           SKY/WX    TMP DP  RH WIND       PRES   REMARKS
PORTLAND ME    SUNNY     27  13  55 S7        30.64F WCI  19
BANGOR ME      SUNNY     26  -2  29 SW9       30.59F WCI  17
CONCORD NH     SUNNY     30  -1  26 NW5       30.64S WCI  25
MANCHESTER NH  SUNNY     31   0  26 W6        30.63S WCI  25
NASHUA NH      SUNNY     31  -2  24 VRB7      30.66S WCI  24
PORTSMOUTH NH  SUNNY     29   0  28 SW6       30.64R WCI  23
JAFFREY NH     SUNNY     27  -2  28 W8        30.60S WCI  19
KEENE NH       SUNNY     28   1  31 S5        30.65S WCI  23
BURLINGTON VT  SUNNY     24   0  35 S10       30.66F WCI  14
MT. WASHINGTON SUNNY      1  -9  60 NW39        N/A  WCI -27
$$

NYZ052-076-282200-
EASTERN NEW YORK

CITY           SKY/WX    TMP DP  RH WIND       PRES   REMARKS
ALBANY         SUNNY     26   1  34 W9        30.73F WCI  17
NEW YORK CITY  MOSUNNY   29   0  28 CALM      30.74F
$$

ANZALL-282200-
MARINE OBSERVATIONS

STATION/POSITION TIME  TEMP    WIND        PRES    VSBY  WAVE
                       AIR SEA DIR/SP/G                  HT/PER
                 (UTC) (F)     (DEG/KT/KT) (MB)    (MI)  (FT/S)
BOSTON BUOY      2050   28 37  290/  8/ 10 1039.3F         2/ 9
BUZZARDS BAY     2100          230/  9/ 11 1040.3F
NANTUCKET SOUND  2050   26 31  220/  8/  8 1039.9F         0
MASS BAY-STELLWA 2004   26 36  250/ 12/ 16   N/A    1 7/8
ISLE OF SHOALS   2100   28     250/ 11/ 12 1037.5S
S OF BLOCK IS    2008      37                N/A           2/ 9
$$

......................KEY.........................
  SKY/WX - SKY CONDITION/PRESENT WEATHER
  TMP    - TEMPERATURE IN FAHRENHEIT
  DWPT   - DEWPOINT IN FAHRENHEIT
  RH     - RELATIVE HUMIDITY IN PERCENT
  WIND   - DIRECTION AND SPEED IN MPH
  PRES   - MEAN SEA LEVEL PRESSURE IN INCHES OF HG
  WCI    - WIND CHILL INDEX
  VSB    - VISIBILITY IN MILES
  HX     - HEAT INDEX
  TC     - TEMPERATURE IN CELSIUS
  VRB    - VARIABLE WIND DIRECTION
  N/A    - NOT AVAILABLE


USA.gov is the U.S. government's official web portal to all federal, state and local government web resources and services.